Tracking 31027 objects as of 19-Jul-2025
HD Live streaming from Space Station
objects crossing your sky now

COSMOS 718

Track COSMOS 718 now!
10-day predictions
COSMOS 718 is classified as:


NORAD ID: 7685
Int'l Code: 1975-016H
Perigee: 1,435.7 km
Apogee: 1,496.0 km
Inclination: 74.0 °
Period: 115.1 minutes
Semi major axis: 7836 km
RCS: 0.6831 m2 (medium)
Launch date: February 28, 1975
Source: Commonwealth of Independent States (former USSR) (CIS)
Launch site: PLESETSK MISSILE AND SPACE COMPLEX (PKMTR)
Your satellite tracking list
ONEWEB-0142
Track 1 satellite(s)




NASA's NSSDC Master Catalog

Two Line Element Set (TLE):
1 07685U 75016H   25199.52612501 -.00000013  00000-0  16005-4 0  9994
2 07685  74.0057 304.5700 0038512 168.8186 203.1032 12.51388060301657
Source of the keplerian elements: AFSPC